Regional Weather Roundup
Issued by NWS

Home | Current Version | Previous Version | Text Only | Print | Product List | Glossary Off
Versions: 1 2 3 4 5 6 7 8 9 10 11 12 13 14 15 16 17 18 19 20 21 22 23 24 25 26 27 28

000
ASUS45 KCYS 051510
RWRWY

WYOMING REGIONAL WEATHER ROUNDUP
NATIONAL WEATHER SERVICE CHEYENNE WY
900 AM MDT THU MAY 05 2016

NOTE:  "FAIR" INDICATES FEW OR NO CLOUDS BELOW 12,000 FEET
WITH NO SIGNIFICANT WEATHER AND/OR OBSTRUCTIONS TO VISIBILITY.

WYZ001-051600-
YELLOWSTONE NATIONAL PARK

CITY           SKY/WX    TMP DP  RH WIND       PRES   REMARKS
LK YELLOWSTONE   N/A     40  29  64 CALM      30.21R
W YELLOWSTONE  NOT AVBL

$$
WYZ002>013-054>058-071-098>099-051600-
NORTHERN WYOMING

CITY           SKY/WX    TMP DP  RH WIND       PRES   REMARKS
JACKSON        SUNNY     48  30  49 CALM      30.15S
CODY           FAIR      63  34  34 SW9       30.02S
GREYBULL       FAIR      60  34  37 CALM      29.99R
WORLAND        FAIR      55  45  68 CALM      30.00R
SHERIDAN       FAIR      61  42  49 CALM      29.95S
BUFFALO        FAIR      65  36  34 SE3       30.00S
GILLETTE       FAIR      65  45  48 S9        29.98F
HULETT         FAIR      66  45  45 W3        30.00S
NEWCASTLE      FAIR      64  36  34 S7        30.03S

$$
WYZ014>020-022>026-101>103-051600-
CENTRAL WYOMING

CITY           SKY/WX    TMP DP  RH WIND       PRES   REMARKS
BIG PINEY      FAIR      49  32  52 CALM      30.19R
PINEDALE       FAIR      52  32  46 CALM      30.18F
DUBOIS         FAIR      46  25  42 NW5       30.17S
LANDER         FAIR      57  37  47 CALM      30.08R
RIVERTON       FAIR      58  40  51 NW3       30.09S
CASPER         FAIR      60  34  37 SW17      30.07S
DOUGLAS        FAIR      59  43  55 VRB3      30.07S

$$
WYZ021-027>030-104>119-051600-
SOUTHERN WYOMING

CITY           SKY/WX    TMP DP  RH WIND       PRES   REMARKS
EVANSTON       FAIR      55  29  36 E7        30.14S
KEMMERER         N/A     54  32  43 CALM      30.18S
FORT BRIDGER   MOSUNNY   57  37  47 CALM      30.19S
ROCK SPRINGS   FAIR      55  35  47 NE3       30.17S
DIXON          FAIR      54  36  50 SE6       30.22S
RAWLINS        FAIR      54  32  43 CALM      30.20S
SARATOGA       FAIR      55  32  41 SE13      30.23R
LARAMIE        FAIR      49  36  61 S8        30.22S
CHEYENNE       FAIR      64  36  35 W10       30.16S
TORRINGTON     FAIR      59  43  55 CALM      30.05S
PINE BLUFFS    FAIR      59  45  58 S5        30.12S

$$




USA.gov is the U.S. government's official web portal to all federal, state and local government web resources and services.